User: anonymous   Login
Location: Calvatone
(45.1167°N, 10.4333°E)
Time: 19:13:19
(UTC+00:00)
Language:

ATLAS 5 CENTAUR R/B - Orbit

View from above orbital plane
View from above orbital plane
View from above satellite
View from above satellite

Ground track
Ground track

The orbit data is extracted from the following two-line orbital elements,

1 31702U 07027B   24140.87054376  .00017743  00000-0  15287-2 0  9997
2 31702  63.3318  17.4759 0521794  32.3127 330.8797 14.28957054  1483
Epoch (UTC): 19 May 2024 20:53:34
Eccentricity: 0.0521794
inclination: 63.3318°
perigee height: 421 km
apogee height: 1169 km
right ascension of ascending node: 17.4759°
argument of perigee: 32.3127°
revolutions per day: 14.28957054
mean anomaly at epoch: 330.8797°
orbit number at epoch: 148

The dashed part of the orbit path shows where the satellite is in the earth's shadow,  

DLR